Home   Weather   Landshut   Past weeks

Flag for Germany Past Weather in Landshut, Bavaria, Germany — Yesterday and Last 2 Weeks

Now
16 °F

Passing clouds.


Feels Like: 6 °F
Forecast: 6 / 19 °F
Wind: 7 mph from Northeast

Location: Munich / Franz Josef Strauss Airport

Current Time: Jan 19, 2017 at 3:30:01 am

Latest Report: Jan 19, 2017 at 2:50 am


Visibility: 6 mi

Pressure: 30.48 "Hg

Humidity: 86%

Dew Point: 12 °F

Location of LandshutLocation

Past Weather in Landshut — Graph

°F

Landshut Temperature Yesterday

Maximum temperature yesterday: 27 °F (at 11:50 am)
Minimum temperature yesterday: 19 °F (at 12:50 am)
Average temperature yesterday: 24 °F

High & Low Weather Summary for the Past Weeks

 TemperatureHumidityPressure
High39 °F (Jan 12, 12:50 pm)100% (Jan 4, 2:50 pm)30.66 "Hg (Jan 4, 2:50 pm)
Low-6 °F (Jan 6, 11:50 pm)53% (Jan 6, 3:50 pm)29.39 "Hg (Jan 13, 1:50 am)
Average25 °F85%30.13 "Hg
* Reported Jan 4 2:20 am — Jan 19 2:20 am, Landshut, Weather by CustomWeather, © 2017

Note: Actual official high and low records may vary slightly from our data, if they occured in-between our weather recording intervals... More about our weather records

Advertising

Landshut Weather History for the Previous 24 Hours

Scroll right to see more
 ConditionsComfort  
Time TempWeatherWind HumidityBarometerVisibility
2:20 am
Thu, Jan 19
16 °FPassing clouds.7 mph86%30.48 "HgN/A
1:50 am18 °FPassing clouds.6 mph86%30.48 "HgN/A
1:20 am19 °FPassing clouds.6 mph79%30.48 "HgN/A
12:50 am21 °FPassing clouds.8 mph80%30.48 "HgN/A
12:20 am23 °FPassing clouds.12 mph74%30.48 "HgN/A
11:50 pm
Wed, Jan 18
23 °FPassing clouds.12 mph74%30.48 "HgN/A
11:20 pm23 °FPassing clouds.14 mph80%30.51 "HgN/A
10:50 pm23 °FPassing clouds.16 mph74%30.51 "HgN/A
10:20 pm23 °FOvercast.13 mph80%30.51 "HgN/A
9:50 pm23 °FOvercast.15 mph80%30.51 "HgN/A
9:20 pm23 °FOvercast.16 mph80%30.51 "HgN/A
8:50 pm23 °FOvercast.12 mph74%30.51 "HgN/A
8:20 pm25 °FOvercast.13 mph74%30.51 "HgN/A
7:50 pm25 °FOvercast.13 mph74%30.51 "HgN/A
7:20 pm25 °FOvercast.14 mph69%30.51 "HgN/A
6:50 pm25 °FOvercast.15 mph69%30.51 "HgN/A
6:20 pm25 °FPassing clouds.13 mph69%30.51 "HgN/A
5:50 pm25 °FPassing clouds.10 mph69%30.51 "HgN/A
5:20 pm25 °FPassing clouds.10 mph69%30.51 "HgN/A
4:50 pm25 °FPassing clouds.12 mph69%30.51 "HgN/A
4:20 pm25 °FPartly sunny.10 mph69%30.51 "HgN/A
3:50 pm25 °FPartly sunny.9 mph69%30.51 "HgN/A
3:20 pm25 °FPartly sunny.10 mph69%30.51 "HgN/A
2:50 pm25 °FPartly sunny.14 mph69%30.51 "HgN/A
2:20 pm25 °FPartly sunny.17 mph69%30.51 "HgN/A
1:50 pm25 °FPartly sunny.20 mph69%30.51 "HgN/A
1:20 pm25 °FPartly sunny.18 mph69%30.51 "HgN/A
12:50 pm27 °FPartly sunny.16 mph64%30.51 "HgN/A
12:20 pm25 °FPartly sunny.16 mph69%30.51 "HgN/A
11:50 am27 °FPartly sunny.13 mph64%30.51 "HgN/A
11:20 am25 °FPartly sunny.14 mph69%30.51 "HgN/A
10:50 am25 °FOvercast.12 mph69%30.51 "HgN/A
10:20 am25 °FOvercast.12 mph69%30.51 "HgN/A
9:50 am25 °FOvercast.14 mph69%30.51 "HgN/A
9:20 am25 °FOvercast.12 mph69%30.51 "HgN/A
8:50 am23 °FOvercast.10 mph74%30.51 "HgN/A
8:20 am23 °FOvercast.12 mph74%30.51 "HgN/A
7:50 am23 °FOvercast.12 mph74%30.48 "HgN/A
7:20 am23 °FPassing clouds.12 mph74%30.48 "HgN/A
6:50 am23 °FPassing clouds.10 mph74%30.48 "HgN/A
6:20 am23 °FPassing clouds.10 mph74%30.48 "HgN/A
5:50 am23 °FPassing clouds.10 mph74%30.48 "HgN/A
5:20 am23 °FPassing clouds.12 mph74%30.48 "HgN/A
4:50 am23 °FPassing clouds.12 mph74%30.48 "HgN/A
4:20 am23 °FPassing clouds.13 mph74%30.48 "HgN/A
3:50 am23 °FPassing clouds.12 mph74%30.48 "HgN/A
3:20 am23 °FPassing clouds.10 mph74%30.48 "HgN/A
Weather by CustomWeather, © 2017

See weather overviewHow to use our weather pages